College Park, MD

10:54 AM EDT on March 24, 2017 (GMT -0400)
College Park

Weather History for KCGS - April, 2013

Change the Weather History Date:

Saturday, April 6, 2013

  Actual Average Record
Temperature  
Mean Temperature 48 °F -  
Max Temperature 58 °F 62 °F 83 °F (1985)
Min Temperature 39 °F 40 °F 29 °F (1963)
Degree Days  
Heating Degree Days 16    
Moisture  
Dew Point 23 °F    
Average Humidity 38    
Maximum Humidity 56    
Minimum Humidity 25    
Precipitation  
Precipitation 0.00 in - - ()
Sea Level Pressure  
Sea Level Pressure 30.25 in    
Wind  
Wind Speed 5 mph (NNE)    
Max Wind Speed 9 mph    
Max Gust Speed 18 mph    
Visibility 10 miles    
Events      
Averages and records for this station are not official NWS values.
T = Trace of Precipitation, MM = Missing Value Source: NWS Daily Summary

Daily Weather History Graph

Daily Weather History Graph

Search for Another Location

Airport or City:

Trip Planner

Search our weather history database for the weather conditions in past years. The results will help you decide how hot, cold, wet, or windy it might be!

Date:

Astronomy

Apr. 06, 2013 Rise Set
Actual Time 6:44 AM EDT 7:36 PM EDT
Civil Twilight 6:17 AM EDT 8:03 PM EDT
Nautical Twilight 5:45 AM EDT 8:35 PM EDT
Astronomical Twilight 5:11 AM EDT 9:09 PM EDT
Moon 4:24 AM EDT (4/6) 4:04 PM EDT (4/6)
Length of Visible Light 13h 46m
Length of Day
12h 52m
Waning Crescent, 15% of the Moon is Illuminated
Apr 6
Waning Crescent
Apr 10
New
Apr 18
First Quarter
Apr 25
Full
May 2
Last Quarter

Hourly Weather History & Observations

Time (EDT) Temp. Windchill Dew Point Humidity Pressure Visibility Wind Dir Wind Speed Gust Speed Precip Events Conditions
12:10 AM 52.5 °F - 23.2 °F 32% 30.05 in 10.0 mi NW 9.2 mph 18.4 mph N/A   Clear
12:30 AM 51.4 °F - 22.6 °F 32% 30.06 in 10.0 mi North 4.6 mph - N/A   Clear
12:50 AM 50.4 °F - 22.3 °F 33% 30.07 in 10.0 mi NNW 9.2 mph - N/A   Clear
1:10 AM 50.0 °F - 20.8 °F 32% 30.08 in 10.0 mi NW 4.6 mph - N/A   Clear
1:30 AM 49.1 °F - 20.3 °F 32% 30.09 in 10.0 mi NNW 3.5 mph - N/A   Clear
1:50 AM 48.0 °F - 20.5 °F 34% 30.10 in 10.0 mi NNW 5.8 mph - N/A   Clear
2:00 AM 47.3 °F - 20.1 °F 34% 30.10 in 10.0 mi NNW 6.9 mph - N/A   Clear
2:30 AM 46.6 °F - 20.1 °F 35% 30.12 in 10.0 mi NNW 4.6 mph - N/A   Clear
2:50 AM 45.7 °F 43.4 °F 20.3 °F 37% 30.12 in 10.0 mi NNW 4.6 mph - N/A   Clear
3:10 AM 45.3 °F 41.6 °F 20.7 °F 38% 30.12 in 10.0 mi NNW 6.9 mph - N/A   Clear
3:30 AM 45.0 °F 41.8 °F 21.0 °F 39% 30.13 in 10.0 mi NNW 5.8 mph - N/A   Clear
3:50 AM 43.9 °F 41.3 °F 21.6 °F 41% 30.14 in 10.0 mi North 4.6 mph - N/A   Clear
4:10 AM 43.9 °F 39.9 °F 22.6 °F 43% 30.15 in 10.0 mi NNW 6.9 mph - N/A   Clear
4:30 AM 43.2 °F 39.0 °F 23.0 °F 45% 30.16 in 10.0 mi NNW 6.9 mph - N/A   Clear
4:50 AM 42.4 °F 39.6 °F 23.2 °F 47% 30.17 in 10.0 mi NNW 4.6 mph - N/A   Clear
5:10 AM 42.1 °F 38.4 °F 23.4 °F 48% 30.18 in 10.0 mi North 5.8 mph - N/A   Clear
5:30 AM 41.0 °F 37.1 °F 23.7 °F 50% 30.19 in 10.0 mi North 5.8 mph - N/A   Clear
5:45 AM 41.0 °F 39.0 °F 23.5 °F 50% 30.20 in 10.0 mi North 3.5 mph - N/A   Clear
6:10 AM 40.5 °F - 23.7 °F 51% 30.22 in 10.0 mi Calm Calm - N/A   Clear
6:30 AM 39.9 °F 37.8 °F 23.9 °F 53% 30.24 in 10.0 mi NNW 3.5 mph - N/A   Clear
6:50 AM 39.0 °F 36.8 °F 24.3 °F 55% 30.25 in 10.0 mi North 3.5 mph - N/A   Clear
7:10 AM 39.2 °F 37.0 °F 24.1 °F 55% 30.27 in 10.0 mi North 3.5 mph - N/A   Clear
7:30 AM 39.6 °F 36.3 °F 24.8 °F 56% 30.28 in 10.0 mi NNW 4.6 mph - N/A   Clear
7:50 AM 41.0 °F 38.0 °F 24.6 °F 52% 30.29 in 10.0 mi NNW 4.6 mph - N/A   Clear
8:10 AM 42.1 °F 37.1 °F 24.4 °F 50% 30.29 in 10.0 mi North 8.1 mph - N/A   Clear
8:30 AM 43.2 °F 38.4 °F 24.1 °F 47% 30.30 in 10.0 mi North 8.1 mph - N/A   Clear
8:50 AM 44.1 °F 40.1 °F 24.1 °F 45% 30.31 in 10.0 mi North 6.9 mph - N/A   Clear
9:10 AM 44.6 °F 39.7 °F 24.4 °F 45% 30.32 in 10.0 mi North 9.2 mph - N/A   Clear
9:30 AM 45.5 °F 41.3 °F 24.1 °F 43% 30.32 in 10.0 mi NNE 8.1 mph - N/A   Clear
9:50 AM 45.5 °F 41.3 °F 23.9 °F 43% 30.33 in 10.0 mi North 8.1 mph - N/A   Clear
10:10 AM 46.4 °F 45.2 °F 23.9 °F 41% 30.33 in 10.0 mi North 3.5 mph - N/A   Clear
10:30 AM 46.6 °F - 23.4 °F 40% 30.33 in 10.0 mi North 4.6 mph - N/A   Clear
10:50 AM 48.0 °F - 24.4 °F 40% 30.33 in 10.0 mi NNE 4.6 mph - N/A   Clear
11:10 AM 48.2 °F - 23.4 °F 38% 30.34 in 10.0 mi Calm Calm - N/A   Clear
11:30 AM 49.1 °F - 24.3 °F 38% 30.34 in 10.0 mi Calm Calm - N/A   Clear
11:50 AM 50.2 °F - 24.4 °F 37% 30.33 in 10.0 mi East 4.6 mph - N/A   Clear
12:10 PM 50.2 °F - 23.0 °F 35% 30.33 in 10.0 mi NW 4.6 mph - N/A   Clear
12:30 PM 51.1 °F - 25.2 °F 36% 30.33 in 10.0 mi NNW 5.8 mph - N/A   Clear
12:50 PM 51.4 °F - 23.9 °F 34% 30.33 in 10.0 mi NNW 6.9 mph - N/A   Clear
1:10 PM 52.7 °F - 23.7 °F 32% 30.32 in 10.0 mi West 4.6 mph - N/A   Clear
1:30 PM 53.8 °F - 23.7 °F 31% 30.32 in 10.0 mi ENE 3.5 mph - N/A   Clear
1:50 PM 54.5 °F - 23.0 °F 29% 30.31 in 10.0 mi SSE 3.5 mph - N/A   Clear
2:10 PM 54.1 °F - 22.8 °F 30% 30.31 in 10.0 mi Calm Calm - N/A   Clear
2:30 PM 56.1 °F - 24.1 °F 29% 30.30 in 10.0 mi SE 3.5 mph - N/A   Clear
2:50 PM 56.1 °F - 24.4 °F 29% 30.29 in 10.0 mi South 4.6 mph - N/A   Clear
3:10 PM 56.1 °F - 23.5 °F 28% 30.28 in 10.0 mi East 5.8 mph - N/A   Clear
3:30 PM 57.7 °F - 25.0 °F 28% 30.28 in 10.0 mi South 5.8 mph - N/A   Clear
3:50 PM 57.7 °F - 23.0 °F 26% 30.27 in 10.0 mi South 4.6 mph - N/A   Clear
4:10 PM 58.1 °F - 22.3 °F 25% 30.27 in 10.0 mi SE 6.9 mph - N/A   Clear
4:30 PM 58.1 °F - 24.3 °F 27% 30.26 in 10.0 mi SSE 5.8 mph - N/A   Clear
4:50 PM 57.9 °F - 25.3 °F 29% 30.26 in 10.0 mi Calm Calm - N/A   Clear
5:10 PM 58.5 °F - 27.0 °F 30% 30.26 in 10.0 mi SE 8.1 mph - N/A   Clear
5:30 PM 57.4 °F - 25.9 °F 30% 30.26 in 10.0 mi SSE 8.1 mph - N/A   Clear
5:50 PM 57.2 °F - 25.7 °F 30% 30.26 in 10.0 mi SSE 5.8 mph - N/A   Clear
6:10 PM 56.5 °F - 24.4 °F 29% 30.27 in 10.0 mi SE 9.2 mph - N/A   Clear
6:30 PM 55.8 °F - 24.3 °F 30% 30.28 in 10.0 mi ESE 6.9 mph - N/A   Clear
6:50 PM 54.5 °F - 22.6 °F 29% 30.28 in 10.0 mi SE 9.2 mph - N/A   Clear
7:10 PM 53.1 °F - 21.4 °F 29% 30.29 in 10.0 mi ESE 6.9 mph - N/A   Clear
7:30 PM 52.2 °F - 21.2 °F 30% 30.28 in 10.0 mi ESE 3.5 mph - N/A   Clear
7:50 PM 51.1 °F - 18.3 °F 27% 30.29 in 10.0 mi SE 4.6 mph - N/A   Clear
8:10 PM 50.7 °F - 16.3 °F 26% 30.28 in 10.0 mi SE 3.5 mph - N/A   Clear
8:30 PM 50.0 °F - 16.7 °F 27% 30.29 in 10.0 mi Calm Calm - N/A   Clear
8:50 PM 48.4 °F - 18.3 °F 30% 30.29 in 10.0 mi Calm Calm - N/A   Clear
9:10 PM 47.3 °F - 20.5 °F 35% 30.29 in 10.0 mi Calm Calm - N/A   Clear
9:30 PM 45.5 °F - 23.0 °F 41% 30.29 in 10.0 mi Calm Calm - N/A   Clear
9:50 PM 45.7 °F - 23.2 °F 41% 30.29 in 10.0 mi Calm Calm - N/A   Clear
10:10 PM 45.0 °F - 25.7 °F 47% 30.29 in 10.0 mi Calm Calm - N/A   Clear
10:30 PM 48.2 °F - 22.1 °F 36% 30.29 in 10.0 mi South 3.5 mph - N/A   Clear
10:50 PM 48.2 °F - 26.2 °F 42% 30.29 in 10.0 mi SSE 5.8 mph - N/A   Clear
11:10 PM 47.8 °F - 29.1 °F 48% 30.29 in 10.0 mi SSE 4.6 mph - N/A   Clear
11:30 PM 47.3 °F - 30.9 °F 53% 30.30 in 10.0 mi South 8.1 mph - N/A   Clear